Location: Peebles
(55.6412°N, 3.1714°W)
Time: 17:51:19
(UTC+01:00)

Cosmos 1934 Rocket - Pass Details

Date: 28 January 2022
Orbit: 938 x 999 km, 83.0° (Epoch: 25 May)

Event Time Altitude Azimuth Distance (km) Brightness Sun altitude
Rises 05:43:34 0° 137° (SE) 3,693 7.7 -20.8°
Reaches altitude 10° 05:46:46 10° 122° (ESE) 2,741 7.2 -20.4°
Maximum altitude 05:51:07 20° 78° (ENE) 2,090 6.6 -19.8°
Drops below altitude 10° 05:55:27 10° 33° (NNE) 2,724 6.7 -19.2°
Sets 05:58:35 0° 18° (NNE) 3,665 7.2 -18.7°
